CZ-2C R/B, 62078

Orbit data source: Space-Track

CZ-2C R/B, 62078 is space debris in SSO originally from a launch on Sun, 24 Nov 2024 UTC launched from the Jiuquan Satellite Launch Center, China (JSC). Debris objects in space refer to the collection of defunct objects orbiting the Earth. Examples of debris include non-operational satellites, rocket bodies, and fragments generated from explosions, collisions, or faulty payload assembly.

Loading next visibility...
Identifier
62078, 2024-218A
Orbit
SSO
Country
Flag of CNCN / PRC
Related business
Manufacturer
CALT
Mission
Spacecraft
Bus & Motor
CZ-2 STAGE 2, Unknown motor
Mass
~3,800 kg wet, ~3,800 kg dry
Launch date (UTC)
2024-11-24 (2 years ago)
Launch vehicle
Unknown
Launch site
Jiuquan Satellite Launch Center, China (JSC)
Object type
Payload
Rocket body
Debris
Shape & HBR
Cyl, 3.7 m
Radar Cross Section
23.715 m², Large (>1 m²)

Expand to show TLE details & history
Last TLE update: 13 hours ago

TLE from 13 hours ago
0 CZ-2C R/B
1 62078U 24218A   26171.31386794  .00005734  00000-0  23155-3 0  9996
2 62078  97.5338 186.8496 0043887   0.7479 359.3816 15.24286659 86938
Epoch: 2026-06-20T07:31Z
TLE epoch observation values (Epoch: 2026-06-20T07:31:58.190Z)
Latitude
0.00002°
Longitude
165.32686°
Altitude
465.861 km
Speed
7.65 km/s
True Right ascension
12h 27m 23s
True Declination
0° 00' 00"
Sunlit
Object was in daylight at epoch
Visualization orbit readout
Latitude
Unknown
Longitude
Unknown
Altitude
Unknown
Speed
Unknown
Apparent Right ascension
Unknown
Apparent Declination
Unknown
Sunlit
N/A
Visualization observer readout
Local Sidereal Time
07:18:41
Azimuth
Unknown
Elevation
Unknown
Doppler factor
Unknown
Orbital elements
Apogee altitude
520.036 km
Perigee altitude
459.752 km
Semi-major axis
6,868.031 km
Eccentricity
0.00439
Inclination
97.5338°
RAAN
186.8496°
Arg. of periapsis
0.7479°
True anomaly
359.37614°
Mean anomaly
359.3816°
Eccentric anomaly
359.37887°
Mean motion
3.81325 °/min
Orbital period
94.41 mins
BSTAR
0.00023155
Loading maneuver chart data...
Computing Atmospheric mass density...
Loading historical data...
Loading historical data...
Loading historical data...
Loading historical data...
Loading historical data...
Loading historical data...
Loading historical data...
Other satellites on launch #218 in the year 2024 (2024-11-24 UTC)

Documentation

Showing up to 5 results
|